Weather History for Palmer, AK

Change the Weather History Date:

Monday, April 14, 2014

  Actual Average Record
Temperature  
Mean Temperature 40 °F -  
Max Temperature 52 °F 42 °F 56 °F (1990)
Min Temperature 30 °F 26 °F 2 °F (1972)
Degree Days  
Heating Degree Days 24    
Moisture  
Dew Point 24 °F    
Average Humidity 53    
Maximum Humidity 79    
Minimum Humidity 36    
Precipitation  
Precipitation 0.00 in - - ()
Sea Level Pressure  
Sea Level Pressure 29.92 in    
Wind  
Wind Speed 7 mph (East)    
Max Wind Speed 12 mph    
Max Gust Speed -    
Visibility 10 miles    
Events      
Averages and records for this station are not official NWS values.
T = Trace of Precipitation, MM = Missing Value Source: NWS Daily Summary

Daily Weather History Graph

Daily Weather History Graph

Search for Another Location

Airport:

Trip Planner

Search our weather history database for the weather conditions in past years. The results will help you decide how hot, cold, wet, or windy it might be!

Date:

Astronomy

Apr. 14, 2014 Rise Set
Actual Time 6:36 AM AKDT 9:18 PM AKDT
Civil Twilight 5:47 AM AKDT 10:07 PM AKDT
Nautical Twilight 4:41 AM AKDT 11:14 PM AKDT
Astronomical Twilight 2:55 AM AKDT 1:08 AM AKDT
Moon 9:06 PM AKDT (4/14) 6:25 AM AKDT (4/14)
Length of Visible Light 16h 19m
Length of Day
14h 41m
Full, 100% of the Moon is Illuminated
Apr 14
Full
Apr 14
Full
Apr 21
Last Quarter
Apr 28
New
May 6
First Quarter

Hourly Weather History & Observations

Time (AKDT) Temp. Windchill Dew Point Humidity Pressure Visibility Wind Dir Wind Speed Gust Speed Precip Events Conditions
12:53 AM 37.9 °F 30.5 °F 25.0 °F 60% 30.02 in 10.0 mi ESE 11.5 mph - N/A   Overcast
1:53 AM 37.9 °F 30.9 °F 25.0 °F 60% 30.02 in 10.0 mi ESE 10.4 mph - N/A   Overcast
2:53 AM 37.9 °F 33.5 °F 24.1 °F 57% 30.02 in 10.0 mi East 5.8 mph - N/A   Overcast
3:53 AM 33.1 °F 27.7 °F 24.1 °F 70% 30.02 in 10.0 mi NE 5.8 mph - N/A   Partly Cloudy
4:53 AM 30.9 °F 23.5 °F 24.1 °F 76% 30.01 in 10.0 mi North 8.1 mph - N/A   Clear
5:53 AM 30.0 °F 23.2 °F 24.1 °F 79% 30.00 in 10.0 mi NNW 6.9 mph - N/A   Clear
6:53 AM 30.0 °F 22.4 °F 23.0 °F 75% 30.00 in 10.0 mi North 8.1 mph - N/A   Clear
7:53 AM 30.0 °F 21.7 °F 23.0 °F 75% 29.99 in 10.0 mi NNW 9.2 mph - N/A   Clear
8:53 AM 35.1 °F 29.3 °F 23.0 °F 61% 29.98 in 10.0 mi North 6.9 mph - N/A   Clear
9:53 AM 39.0 °F - 23.0 °F 53% 29.97 in 10.0 mi Calm Calm - N/A   Clear
10:53 AM 42.1 °F - 23.0 °F 47% 29.96 in 10.0 mi Calm Calm - N/A   Clear
11:53 AM 44.1 °F - 23.0 °F 43% 29.95 in 10.0 mi Calm Calm - N/A   Clear
12:53 PM 46.0 °F - 24.1 °F 42% 29.93 in 10.0 mi Calm Calm - N/A   Clear
1:53 PM 46.9 °F - 23.0 °F 39% 29.91 in 10.0 mi Calm Calm - N/A   Clear
2:53 PM 48.9 °F - 23.0 °F 36% 29.89 in 10.0 mi SSE 3.5 mph - N/A   Clear
3:53 PM 51.1 °F - 25.0 °F 36% 29.87 in 10.0 mi SSW 4.6 mph - N/A   Partly Cloudy
4:53 PM 50.0 °F - 24.1 °F 36% 29.85 in 10.0 mi SE 5.8 mph - N/A   Partly Cloudy
5:53 PM 51.1 °F - 25.0 °F 36% 29.84 in 10.0 mi Variable 3.5 mph - N/A   Partly Cloudy
6:53 PM 50.0 °F - 25.0 °F 38% 29.83 in 10.0 mi West 8.1 mph - N/A   Clear
7:53 PM 48.0 °F - 25.0 °F 41% 29.82 in 10.0 mi SE 5.8 mph - N/A   Clear
8:53 PM 44.1 °F 40.8 °F 25.0 °F 47% 29.83 in 10.0 mi SSE 5.8 mph - N/A   Clear
9:53 PM 41.0 °F 39.0 °F 27.0 °F 57% 29.83 in 10.0 mi East 3.5 mph - N/A   Clear
10:53 PM 39.0 °F 35.7 °F 24.1 °F 55% 29.82 in 10.0 mi ESE 4.6 mph - N/A   Clear
11:53 PM 37.0 °F 34.5 °F 25.0 °F 62% 29.82 in 10.0 mi NNW 3.5 mph - N/A   Clear